SCP
0 0 0 0 0 0 0 0 0 0 2 1 1 0 0 0 0 0 0 0 0 0 0 0 0 0 0 0 0 0 0 0 0 0 1 0 0 1 1 0 0 0 1
0 0 0 0 0 0 0 0 0 0 1 2 2 1 1 1 1 1 1 2 1 1 0 0 0 0 0 1 1 0 1 1 1 2 2 1 1 1 1 1 1 1 1
0 0 0 0 0 0 0 0 0 0 0 1 2 2 2 3 1 2 2 2 1 1 1 1 1 1 1 1 1 1 1 2 1 1 3 1 1 1 0 1 1 1 1
0 0 0 0 0 0 0 0 0 0 0 0 0 3 3 4 3 3 2 2 1 1 1 2 2 2 1 2 1 1 1 2 3 1 1 1 1 0 0 0 1 1 1
0 0 0 0 0 0 0 0 0 0 0 0 0 0 3 4 5 3 5 4 3 3 2 3 3 2 2 2 2 1 2 2 2 1 1 0 1 0 0 0 1 0 1
0 0 0 0 0 0 0 0 0 0 0 0 0 0 0 2 2 3 3 2 2 2 3 2 2 3 3 2 2 2 2 2 1 1 1 1 1 0 0 0 1 1 1
0 0 0 0 0 0 0 0 0 0 0 0 0 0 0 1 2 3 2 2 3 2 3 3 4 3 3 2 2 2 2 2 1 1 1 1 1 1 1 1 1 1 1
0 0 0 0 0 0 0 0 0 0 0 0 0 0 0 0 1 2 2 2 2 2 3 3 3 3 3 2 2 2 2 2 1 1 1 1 1 1 0 1 1 1 1
0 0 0 0 0 0 0 0 0 0 0 0 0 0 0 0 1 2 3 2 2 2 3 3 3 3 2 2 2 3 3 2 1 1 1 0 1 0 1 1 1 1 0
0 0 0 0 0 0 0 0 0 0 0 0 0 0 0 0 0 1 2 2 2 1 2 2 3 3 3 3 3 4 4 2 1 1 1 1 0 0 0 1 0 0 0
-0 -0 0 -0 0 0 0 -0 -0 0 0 0 0 0 0 0 0 0 1 1 2 2 1 2 3 3 3 3 3 3 3 1 1 1 0 0 0 1 0 0 0 0 0
-0 -0 -0 0 0 0 0 -0 -0 0 0 0 0 0 0 0 0 0 0 1 1 1 1 2 2 3 3 3 3 3 1 1 1 1 1 0 0 1 1 0 0 0 0
0 0 0 0 0 0 0 0 0 0 0 0 0 0 0 0 0 0 0 1 1 2 2 2 3 3 3 3 2 2 1 1 1 1 1 1 1 1 0 0 0 0 0
0 0 -0 0 0 0 0 0 -0 0 0 0 0 0 0 0 0 0 1 1 2 2 2 2 2 3 3 2 2 1 1 1 0 0 1 1 0 0 0 0 0 0 0
0 0 0 0 0 0 0 0 -0 0 0 0 0 0 0 1 1 1 1 2 2 2 2 3 3 3 2 2 2 1 1 0 0 0 0 0 0 0 0 0 0 0 0
0 0 0 0 0 0 0 0 -0 0 0 0 0 1 1 1 1 1 2 2 2 2 3 3 2 2 2 1 0 0 1 0 0 0 0 0 0 0 0 0 0 0 0
-0 0 0 0 -0 0 0 0 0 0 0 0 -0 0 1 1 1 1 2 2 2 3 2 2 2 2 1 0 0 0 0 0 0 0 0 0 0 0 0 0 0 0 0
-0 -0 -0 -0 -0 0 -0 0 0 0 0 0 0 1 1 1 1 2 2 2 3 3 3 2 2 1 0 0 0 0 0 0 0 0 0 0 0 0 0 0 0 0 0
0 -0 -0 -0 -0 0 -0 0 0 0 0 0 0 1 1 0 1 2 2 3 3 2 1 1 0 0 0 0 0 0 0 0 0 0 0 0 0 0 0 0 0 0 0
-0 0 0 0 -0 0 -0 -0 0 0 0 0 0 1 1 1 2 2 3 3 2 1 0 0 0 0 0 0 0 0 0 0 0 0 0 0 0 0 0 0 0 0 0
-0 0 0 0 -0 0 0 -0 -0 0 0 0 1 1 1 2 1 2 2 1 0 0 0 0 0 0 0 0 0 0 0 0 0 0 0 0 0 0 0 0 0 0 0
-0 -0 0 0 0 0 0 -0 -0 0 0 0 0 1 1 1 1 1 0 0 0 0 0 0 0 0 0 0 0 0 0 0 0 0 0 0 -0 0 -0 0 -0 0 0
-0 -0 -0 -0 -0 -0 0 -0 0 0 0 0 0 1 1 0 0 0 0 0 0 0 0 0 0 0 0 0 0 0 0 0 0 0 -0 -0 -0 -0 -0 -0 -0 0 0
-0 -0 0 0 -0 -0 0 0 0 0 0 0 0 0 0 0 0 0 0 0 0 0 0 0 0 0 0 0 0 0 0 -0 -0 -0 0 0 -0 -0 0 0 0 0 0
-0 -0 -0 -0 0 -0 0 0 0 0 0 0 0 0 0 0 0 0 0 0 0 0 0 0 0 0 0 0 0 0 0 0 -0 -0 0 0 0 0 0 0 0 0 0
-0 -0 -0 -0 0 -0 0 0 0 0 0 0 0 0 0 0 0 0 0 0 0 0 0 0 0 0 0 0 0 -0 -0 -0 -0 0 0 0 0 0 0 0 0 0 0
Wind_Speed_500mb
21 28 32 30 29 22 21 28 32 41 49 63 75 92 102 97 91 83 74 58 64 85 88 75 45 46 59 49 45 46 45 44 43 43 43 43 42 39 35 36 41 38 36
30 26 28 32 36 35 32 26 27 39 46 48 57 73 78 78 88 74 72 74 85 92 79 87 70 76 72 57 48 44 42 45 46 41 39 20 28 42 39 38 39 37 38
29 24 28 34 39 41 46 43 30 29 36 44 51 58 63 65 70 82 83 89 91 100 84 84 79 64 59 57 46 44 41 44 46 45 37 12 19 12 30 36 32 32 38
26 31 30 34 32 36 43 49 45 38 33 36 48 59 64 73 74 68 87 84 97 99 77 77 81 74 63 57 49 45 43 43 48 47 50 50 18 12 7 24 28 23 23
16 20 24 26 28 33 36 41 48 49 42 38 42 52 66 75 76 77 85 88 87 86 98 98 75 63 57 54 50 51 49 47 48 49 47 49 53 42 28 27 20 28 28
15 25 28 41 42 39 37 38 43 48 49 48 45 48 63 76 84 88 88 93 96 95 91 75 64 62 54 54 50 52 53 48 44 42 47 47 40 41 39 35 28 26 21
22 34 46 47 48 41 42 45 44 46 47 49 53 49 54 70 84 91 94 90 84 79 83 75 65 58 51 47 50 55 51 43 42 40 44 40 39 39 35 33 27 24 19
34 40 47 45 42 43 46 48 50 52 49 48 52 54 53 62 75 85 83 85 82 80 82 67 64 55 47 46 51 50 42 39 37 41 40 35 34 37 37 29 25 21 18
45 45 49 39 34 45 53 57 58 57 55 53 49 54 55 53 68 73 66 72 76 73 58 58 64 51 46 49 48 46 41 36 36 37 37 36 35 35 32 29 25 22 22
47 52 46 37 34 44 54 59 61 62 58 58 58 54 55 54 56 70 72 63 64 53 53 63 57 49 50 48 46 42 37 31 30 30 33 37 36 32 34 32 30 25 21
47 47 48 41 39 45 45 58 66 61 54 56 59 57 55 56 53 64 64 51 46 43 51 59 55 52 51 48 47 40 31 32 32 36 39 36 33 32 31 30 29 28 23
49 51 53 52 45 44 47 49 60 56 47 49 55 59 57 56 58 63 65 58 53 49 50 53 52 53 50 50 45 40 34 37 40 41 41 41 37 34 31 29 28 28 25
54 57 57 55 55 49 48 50 58 58 47 44 51 58 59 59 62 65 73 69 64 58 55 56 56 56 52 49 40 41 36 39 42 41 40 37 35 34 32 29 28 28 26
59 60 57 57 52 51 53 54 67 65 55 46 50 59 61 63 62 65 70 69 64 61 59 56 57 54 51 47 44 41 37 39 35 33 32 34 32 32 31 28 28 28 27
62 57 59 54 54 55 58 55 65 65 59 51 52 62 63 63 68 69 74 64 60 58 57 58 56 55 49 43 46 42 41 33 31 31 31 31 32 32 30 29 30 30 28
72 73 62 51 61 60 61 57 67 63 58 55 59 58 63 67 72 73 67 64 60 58 57 56 57 54 45 46 46 45 34 30 25 25 26 29 32 35 35 33 31 29 28
60 61 50 62 67 61 65 61 69 69 62 55 60 53 53 58 69 71 64 62 61 61 60 57 52 48 50 51 46 37 31 28 23 24 26 31 34 35 37 35 34 31 27
55 60 67 74 65 68 64 61 59 56 62 59 54 50 54 60 68 69 65 66 66 64 59 57 57 57 58 50 44 34 28 25 25 26 24 23 23 26 34 35 32 27 28
74 72 70 68 64 66 60 59 63 64 61 58 52 53 60 64 74 74 73 67 64 62 58 63 63 61 52 46 41 33 28 27 23 20 18 18 20 22 27 29 29 31 30
74 64 64 63 60 63 56 58 65 71 69 56 43 58 64 74 82 81 73 68 67 70 72 66 57 51 49 43 35 29 26 23 22 20 21 20 18 18 21 27 30 27 30
66 66 66 66 61 60 53 60 65 57 51 42 33 60 64 70 75 71 72 74 75 76 70 66 56 51 41 37 31 25 25 23 22 23 24 21 23 21 22 27 25 25 27
72 67 67 66 66 60 57 49 65 50 38 32 38 59 64 67 64 71 76 83 83 74 68 63 57 48 39 33 31 30 27 26 25 27 26 24 23 22 20 24 25 22 22
77 76 71 71 63 53 47 51 61 41 30 32 38 51 54 57 71 75 92 82 77 74 70 60 51 45 40 35 34 32 30 27 27 28 26 25 29 31 28 24 26 19 14
84 83 77 75 66 49 44 45 43 42 42 53 49 59 60 66 88 87 81 80 77 72 63 54 48 44 40 36 37 34 29 29 29 30 28 35 31 28 23 25 23 16 12
85 84 81 73 59 54 47 30 44 49 67 67 68 79 86 92 87 80 72 68 67 54 48 43 39 41 39 40 34 31 29 29 31 33 35 38 35 32 27 25 20 15 13
79 77 77 64 87 72 69 55 61 72 74 80 92 95 87 81 80 80 74 66 50 39 33 33 30 33 30 40 35 32 32 29 32 31 36 38 36 31 26 23 18 15 14
Wind_Direction_500mb
285 294 290 288 284 270 275 253 245 244 242 239 225 228 248 242 237 240 238 232 240 240 257 255 269 294 278 278 275 263 261 265 262 260 262 261 257 248 242 242 238 246 250
267 263 273 282 283 284 281 283 264 251 249 242 235 242 244 245 242 227 219 230 236 244 246 249 261 244 261 273 275 266 264 268 266 254 254 267 258 247 240 243 242 247 252
269 278 292 295 300 281 278 281 277 266 259 253 246 247 243 247 240 231 233 230 235 249 256 262 259 263 259 269 277 272 268 270 268 257 237 220 233 225 238 238 238 250 257
288 290 294 297 292 288 281 276 277 270 268 259 252 246 250 244 235 236 229 240 246 255 254 261 261 266 256 265 273 274 275 266 261 252 243 231 219 223 218 225 230 242 234
315 312 319 320 309 311 298 286 276 269 267 269 261 254 243 247 244 235 235 246 252 253 258 267 261 256 250 260 269 274 277 268 255 255 246 234 232 235 240 254 245 254 253
322 338 333 335 329 314 307 301 283 272 268 264 269 264 257 249 244 242 243 249 259 254 253 257 257 247 248 257 268 274 270 260 251 251 238 233 231 232 238 247 250 249 259
323 332 328 324 331 328 311 301 295 279 272 269 262 267 262 250 249 248 251 251 252 253 259 259 255 240 244 256 263 270 257 244 245 241 236 241 239 246 246 246 251 256 257
330 325 325 316 322 325 321 308 293 283 274 269 264 260 265 254 244 243 245 253 255 258 264 260 242 233 241 250 263 255 239 232 234 240 233 236 233 242 246 241 239 251 243
330 329 327 307 304 314 321 315 302 283 273 270 267 257 257 259 247 238 242 252 257 262 256 240 234 232 238 251 251 236 229 225 235 237 230 225 229 230 232 240 240 237 251
328 328 327 307 304 316 320 312 299 289 273 265 268 262 255 257 251 240 236 246 256 251 232 230 229 230 244 245 230 220 215 229 223 223 221 221 220 218 227 230 243 238 240
321 316 318 311 301 309 315 316 299 291 275 262 263 261 255 252 252 236 227 225 242 242 229 230 227 242 238 227 216 208 221 214 212 217 215 212 212 226 232 230 233 235 229
310 311 314 307 301 298 304 310 308 296 286 270 265 258 255 248 248 238 230 229 231 236 232 227 232 235 227 216 207 218 214 212 219 220 212 213 219 223 225 226 228 225 230
308 310 306 301 296 299 305 305 305 301 297 288 276 255 250 245 240 237 232 232 230 230 228 230 231 222 214 208 208 215 209 214 219 215 215 220 220 224 222 220 221 227 225
302 301 302 300 292 294 301 306 307 297 300 292 282 257 243 245 236 236 230 232 228 225 220 224 215 212 208 203 206 198 201 209 206 208 215 221 224 225 219 218 224 227 222
301 295 300 294 292 298 297 298 306 295 297 288 281 258 242 241 234 231 227 224 217 215 216 207 202 201 201 201 193 187 192 193 205 213 218 222 220 220 223 225 227 222 219
298 291 289 285 292 295 296 292 304 301 301 287 278 263 249 238 230 225 221 212 208 204 198 194 196 194 198 192 183 183 188 189 197 209 217 223 224 223 224 225 220 221 216
296 295 285 292 291 291 293 291 301 301 301 290 277 256 240 226 219 211 204 198 196 188 186 188 190 190 181 172 172 178 184 195 209 222 233 236 233 230 226 217 214 207 218
294 293 288 290 292 296 292 290 302 296 298 290 269 245 222 210 203 193 187 184 180 181 184 184 179 173 166 169 173 177 195 211 226 235 230 228 221 216 206 214 200 205 203
292 291 288 290 292 294 294 293 293 291 293 287 261 226 203 195 184 177 175 175 179 179 181 172 166 167 167 172 178 189 203 219 220 210 208 201 198 197 203 202 199 197 198
291 289 291 294 290 289 293 284 264 278 288 279 245 216 194 184 176 172 174 176 175 167 162 158 162 167 167 171 179 195 208 200 189 183 169 162 170 179 186 187 189 197 193
294 295 292 287 285 289 282 278 270 272 277 263 236 196 178 175 175 170 170 168 165 157 158 160 161 163 171 175 183 187 180 172 167 159 159 161 151 156 156 161 180 187 193
299 295 287 282 285 284 280 272 264 271 265 231 187 184 181 181 173 171 166 162 155 155 161 161 161 165 165 173 173 169 162 153 151 155 155 155 154 155 149 157 164 172 184
300 300 294 290 286 281 269 258 260 259 233 197 182 183 179 178 171 165 152 154 157 161 159 160 161 163 167 167 166 161 159 157 159 157 156 151 146 137 138 139 137 142 174
303 302 295 290 287 276 262 254 247 223 192 183 174 172 169 166 152 151 154 158 162 161 161 162 167 171 168 164 163 165 172 173 173 165 156 151 149 142 146 149 146 146 150
304 303 297 286 277 265 260 223 207 205 173 168 166 153 147 146 148 151 159 161 161 164 165 169 172 171 172 169 170 171 173 175 171 165 162 161 160 155 158 156 156 154 155
316 311 300 266 239 238 236 243 177 160 159 147 150 148 151 150 153 154 155 157 158 159 160 154 159 165 169 163 166 164 163 164 164 165 166 166 167 163 164 162 160 166 159
Wind_Speed_850mb
21 28 32 30 29 22 21 28 32 41 49 63 75 92 102 97 91 83 74 58 64 85 88 75 45 46 59 49 45 46 45 44 43 43 43 43 42 39 35 36 41 38 36
30 26 28 32 36 35 32 26 27 39 46 48 57 73 78 78 88 74 72 74 85 92 79 87 70 76 72 57 48 44 42 45 46 41 39 20 28 42 39 38 39 37 38
29 24 28 34 39 41 46 43 30 29 36 44 51 58 63 65 70 82 83 89 91 100 84 84 79 64 59 57 46 44 41 44 46 45 37 12 19 12 30 36 32 32 38
26 31 30 34 32 36 43 49 45 38 33 36 48 59 64 73 74 68 87 84 97 99 77 77 81 74 63 57 49 45 43 43 48 47 50 50 18 12 7 24 28 23 23
16 20 24 26 28 33 36 41 48 49 42 38 42 52 66 75 76 77 85 88 87 86 98 98 75 63 57 54 50 51 49 47 48 49 47 49 53 42 28 27 20 28 28
15 25 28 41 42 39 37 38 43 48 49 48 45 48 63 76 84 88 88 93 96 95 91 75 64 62 54 54 50 52 53 48 44 42 47 47 40 41 39 35 28 26 21
22 34 46 47 48 41 42 45 44 46 47 49 53 49 54 70 84 91 94 90 84 79 83 75 65 58 51 47 50 55 51 43 42 40 44 40 39 39 35 33 27 24 19
34 40 47 45 42 43 46 48 50 52 49 48 52 54 53 62 75 85 83 85 82 80 82 67 64 55 47 46 51 50 42 39 37 41 40 35 34 37 37 29 25 21 18
45 45 49 39 34 45 53 57 58 57 55 53 49 54 55 53 68 73 66 72 76 73 58 58 64 51 46 49 48 46 41 36 36 37 37 36 35 35 32 29 25 22 22
47 52 46 37 34 44 54 59 61 62 58 58 58 54 55 54 56 70 72 63 64 53 53 63 57 49 50 48 46 42 37 31 30 30 33 37 36 32 34 32 30 25 21
47 47 48 41 39 45 45 58 66 61 54 56 59 57 55 56 53 64 64 51 46 43 51 59 55 52 51 48 47 40 31 32 32 36 39 36 33 32 31 30 29 28 23
49 51 53 52 45 44 47 49 60 56 47 49 55 59 57 56 58 63 65 58 53 49 50 53 52 53 50 50 45 40 34 37 40 41 41 41 37 34 31 29 28 28 25
54 57 57 55 55 49 48 50 58 58 47 44 51 58 59 59 62 65 73 69 64 58 55 56 56 56 52 49 40 41 36 39 42 41 40 37 35 34 32 29 28 28 26
59 60 57 57 52 51 53 54 67 65 55 46 50 59 61 63 62 65 70 69 64 61 59 56 57 54 51 47 44 41 37 39 35 33 32 34 32 32 31 28 28 28 27
62 57 59 54 54 55 58 55 65 65 59 51 52 62 63 63 68 69 74 64 60 58 57 58 56 55 49 43 46 42 41 33 31 31 31 31 32 32 30 29 30 30 28
72 73 62 51 61 60 61 57 67 63 58 55 59 58 63 67 72 73 67 64 60 58 57 56 57 54 45 46 46 45 34 30 25 25 26 29 32 35 35 33 31 29 28
60 61 50 62 67 61 65 61 69 69 62 55 60 53 53 58 69 71 64 62 61 61 60 57 52 48 50 51 46 37 31 28 23 24 26 31 34 35 37 35 34 31 27
55 60 67 74 65 68 64 61 59 56 62 59 54 50 54 60 68 69 65 66 66 64 59 57 57 57 58 50 44 34 28 25 25 26 24 23 23 26 34 35 32 27 28
74 72 70 68 64 66 60 59 63 64 61 58 52 53 60 64 74 74 73 67 64 62 58 63 63 61 52 46 41 33 28 27 23 20 18 18 20 22 27 29 29 31 30
74 64 64 63 60 63 56 58 65 71 69 56 43 58 64 74 82 81 73 68 67 70 72 66 57 51 49 43 35 29 26 23 22 20 21 20 18 18 21 27 30 27 30
66 66 66 66 61 60 53 60 65 57 51 42 33 60 64 70 75 71 72 74 75 76 70 66 56 51 41 37 31 25 25 23 22 23 24 21 23 21 22 27 25 25 27
72 67 67 66 66 60 57 49 65 50 38 32 38 59 64 67 64 71 76 83 83 74 68 63 57 48 39 33 31 30 27 26 25 27 26 24 23 22 20 24 25 22 22
77 76 71 71 63 53 47 51 61 41 30 32 38 51 54 57 71 75 92 82 77 74 70 60 51 45 40 35 34 32 30 27 27 28 26 25 29 31 28 24 26 19 14
84 83 77 75 66 49 44 45 43 42 42 53 49 59 60 66 88 87 81 80 77 72 63 54 48 44 40 36 37 34 29 29 29 30 28 35 31 28 23 25 23 16 12
85 84 81 73 59 54 47 30 44 49 67 67 68 79 86 92 87 80 72 68 67 54 48 43 39 41 39 40 34 31 29 29 31 33 35 38 35 32 27 25 20 15 13
79 77 77 64 87 72 69 55 61 72 74 80 92 95 87 81 80 80 74 66 50 39 33 33 30 33 30 40 35 32 32 29 32 31 36 38 36 31 26 23 18 15 14
Wind_Direction_850mb
285 294 290 288 284 270 275 253 245 244 242 239 225 228 248 242 237 240 238 232 240 240 257 255 269 294 278 278 275 263 261 265 262 260 262 261 257 248 242 242 238 246 250
267 263 273 282 283 284 281 283 264 251 249 242 235 242 244 245 242 227 219 230 236 244 246 249 261 244 261 273 275 266 264 268 266 254 254 267 258 247 240 243 242 247 252
269 278 292 295 300 281 278 281 277 266 259 253 246 247 243 247 240 231 233 230 235 249 256 262 259 263 259 269 277 272 268 270 268 257 237 220 233 225 238 238 238 250 257
288 290 294 297 292 288 281 276 277 270 268 259 252 246 250 244 235 236 229 240 246 255 254 261 261 266 256 265 273 274 275 266 261 252 243 231 219 223 218 225 230 242 234
315 312 319 320 309 311 298 286 276 269 267 269 261 254 243 247 244 235 235 246 252 253 258 267 261 256 250 260 269 274 277 268 255 255 246 234 232 235 240 254 245 254 253
322 338 333 335 329 314 307 301 283 272 268 264 269 264 257 249 244 242 243 249 259 254 253 257 257 247 248 257 268 274 270 260 251 251 238 233 231 232 238 247 250 249 259
323 332 328 324 331 328 311 301 295 279 272 269 262 267 262 250 249 248 251 251 252 253 259 259 255 240 244 256 263 270 257 244 245 241 236 241 239 246 246 246 251 256 257
330 325 325 316 322 325 321 308 293 283 274 269 264 260 265 254 244 243 245 253 255 258 264 260 242 233 241 250 263 255 239 232 234 240 233 236 233 242 246 241 239 251 243
330 329 327 307 304 314 321 315 302 283 273 270 267 257 257 259 247 238 242 252 257 262 256 240 234 232 238 251 251 236 229 225 235 237 230 225 229 230 232 240 240 237 251
328 328 327 307 304 316 320 312 299 289 273 265 268 262 255 257 251 240 236 246 256 251 232 230 229 230 244 245 230 220 215 229 223 223 221 221 220 218 227 230 243 238 240
321 316 318 311 301 309 315 316 299 291 275 262 263 261 255 252 252 236 227 225 242 242 229 230 227 242 238 227 216 208 221 214 212 217 215 212 212 226 232 230 233 235 229
310 311 314 307 301 298 304 310 308 296 286 270 265 258 255 248 248 238 230 229 231 236 232 227 232 235 227 216 207 218 214 212 219 220 212 213 219 223 225 226 228 225 230
308 310 306 301 296 299 305 305 305 301 297 288 276 255 250 245 240 237 232 232 230 230 228 230 231 222 214 208 208 215 209 214 219 215 215 220 220 224 222 220 221 227 225
302 301 302 300 292 294 301 306 307 297 300 292 282 257 243 245 236 236 230 232 228 225 220 224 215 212 208 203 206 198 201 209 206 208 215 221 224 225 219 218 224 227 222
301 295 300 294 292 298 297 298 306 295 297 288 281 258 242 241 234 231 227 224 217 215 216 207 202 201 201 201 193 187 192 193 205 213 218 222 220 220 223 225 227 222 219
298 291 289 285 292 295 296 292 304 301 301 287 278 263 249 238 230 225 221 212 208 204 198 194 196 194 198 192 183 183 188 189 197 209 217 223 224 223 224 225 220 221 216
296 295 285 292 291 291 293 291 301 301 301 290 277 256 240 226 219 211 204 198 196 188 186 188 190 190 181 172 172 178 184 195 209 222 233 236 233 230 226 217 214 207 218
294 293 288 290 292 296 292 290 302 296 298 290 269 245 222 210 203 193 187 184 180 181 184 184 179 173 166 169 173 177 195 211 226 235 230 228 221 216 206 214 200 205 203
292 291 288 290 292 294 294 293 293 291 293 287 261 226 203 195 184 177 175 175 179 179 181 172 166 167 167 172 178 189 203 219 220 210 208 201 198 197 203 202 199 197 198
291 289 291 294 290 289 293 284 264 278 288 279 245 216 194 184 176 172 174 176 175 167 162 158 162 167 167 171 179 195 208 200 189 183 169 162 170 179 186 187 189 197 193
294 295 292 287 285 289 282 278 270 272 277 263 236 196 178 175 175 170 170 168 165 157 158 160 161 163 171 175 183 187 180 172 167 159 159 161 151 156 156 161 180 187 193
299 295 287 282 285 284 280 272 264 271 265 231 187 184 181 181 173 171 166 162 155 155 161 161 161 165 165 173 173 169 162 153 151 155 155 155 154 155 149 157 164 172 184
300 300 294 290 286 281 269 258 260 259 233 197 182 183 179 178 171 165 152 154 157 161 159 160 161 163 167 167 166 161 159 157 159 157 156 151 146 137 138 139 137 142 174
303 302 295 290 287 276 262 254 247 223 192 183 174 172 169 166 152 151 154 158 162 161 161 162 167 171 168 164 163 165 172 173 173 165 156 151 149 142 146 149 146 146 150
304 303 297 286 277 265 260 223 207 205 173 168 166 153 147 146 148 151 159 161 161 164 165 169 172 171 172 169 170 171 173 175 171 165 162 161 160 155 158 156 156 154 155
316 311 300 266 239 238 236 243 177 160 159 147 150 148 151 150 153 154 155 157 158 159 160 154 159 165 169 163 166 164 163 164 164 165 166 166 167 163 164 162 160 166 159